Find OneWeb SL0205

NORAD ID: 48226 Int'l Des: 2021-031 Owner: ONEWEBN Country: UK Constellation: oneweb operational
LEOCIRCULARPOLARONEWEB_TYPE

現在のビュー

3D地球を読み込み中...

About OneWeb SL0205

OneWeb SL0205 (NORAD 48226) is a oneweb constellation satellite launched Apr 25, 2021 by ONEWEBN of UK. It operates in LEO, CIRCULAR, POLAR, ONEWEB_TYPE orbit with a mass of 148.00 kg.

OneWeb SL0205について

説明を読み込み中...

次回通過

Passes for default location (London). Set your location on the main map for personalized predictions.

高度履歴

Loading altitude history...

軌道要素

1 48226U 21031S 26170.34516142 -.00000071 00000-0 -22708-3 0 9993
2 48226 87.8976 289.2663 0002180 105.4648 254.6723 13.14501141248558
Epoch: Jun 19, 2026 • Age: 20 hours

現在のステータス

高度 1211.0 km
速度 7.25 km/s
衛星直下点 41.04°N, 46.29°W
打ち上げ日 Apr 25, 2021
運用期間 5.1 years
タイプ internet

技術仕様

分類 Payload
質量 148.00 kg
乾燥質量 140.00 kg
総質量 148.00 kg
長さ 1.30 m
直径 1.00 m
スパン 5.00 m
形状 Trapezoid+2 pan
製造者 ONEWUS
バスタイプ ARROW
フェーズステータス In Orbit
所有者/国 ONEWEBN/UK

Most Searched